Wink, TX

9:21 AM CST on January 21, 2018 (GMT -0600)
Winkler County

Weather History for KINK - October, 2010

Change the Weather History Date:

Tuesday, October 19, 2010

  Actual Average Record
Temperature  
Mean Temperature 66 °F -  
Max Temperature 84 °F 77 °F 93 °F (2016)
Min Temperature 51 °F 46 °F 28 °F (1989)
Cooling Degree Days 2    
Growing Degree Days 16 (Base 50)    
Moisture  
Dew Point 49 °F    
Average Humidity 58    
Maximum Humidity 92    
Minimum Humidity 29    
Precipitation  
Precipitation 0.00 in - - ()
Sea Level Pressure  
Sea Level Pressure 29.89 in    
Wind  
Wind Speed 8 mph (NNE)    
Max Wind Speed 12 mph    
Max Gust Speed 21 mph    
Visibility 10 miles    
Events      
Averages and records for this station are not official NWS values.
T = Trace of Precipitation, MM = Missing Value Source: NWS Daily Summary

Daily Weather History Graph

Daily Weather History Graph

Search for Another Location

Airport or City:

Trip Planner

Search our weather history database for the weather conditions in past years. The results will help you decide how hot, cold, wet, or windy it might be!

Date:

Astronomy

Oct. 19, 2010 Rise Set
Actual Time 7:58 AM CDT 7:16 PM CDT
Civil Twilight 7:34 AM CDT 7:40 PM CDT
Nautical Twilight 7:05 AM CDT 8:09 PM CDT
Astronomical Twilight 6:37 AM CDT 8:37 PM CDT
Moon 5:18 PM CDT (10/19) 4:56 AM CDT (10/19)
Length of Visible Light 12h 06m
Length of Day
11h 17m
Waxing Gibbous, 90% of the Moon is Illuminated
Oct 19
Waxing Gibbous
Oct 22
Full
Oct 30
Last Quarter
Nov 5
New
Nov 13
First Quarter

Hourly Weather History & Observations

Time (CDT) Temp. Dew Point Humidity Pressure Visibility Wind Dir Wind Speed Gust Speed Precip Events Conditions
12:53 AM 64.9 °F 48.9 °F 56% 29.81 in 10.0 mi SE 8.1 mph - N/A   Clear
1:53 AM 64.0 °F 50.0 °F 60% 29.80 in 10.0 mi SE 6.9 mph - N/A   Clear
2:53 AM 57.0 °F 46.9 °F 69% 29.82 in 10.0 mi North 4.6 mph - N/A   Clear
3:53 AM 54.0 °F 46.0 °F 75% 29.83 in 10.0 mi NNW 5.8 mph - N/A   Clear
4:53 AM 53.1 °F 48.0 °F 83% 29.83 in 10.0 mi NNW 8.1 mph - N/A   Clear
5:53 AM 52.0 °F 48.0 °F 86% 29.84 in 10.0 mi North 9.2 mph - N/A   Clear
6:53 AM 51.1 °F 48.9 °F 92% 29.88 in 10.0 mi NNW 6.9 mph - N/A   Clear
7:53 AM 52.0 °F 48.9 °F 89% 29.91 in 10.0 mi North 11.5 mph - N/A   Clear
8:53 AM 55.0 °F 48.9 °F 80% 29.94 in 10.0 mi North 11.5 mph - N/A   Clear
9:53 AM 60.1 °F 48.9 °F 67% 29.96 in 10.0 mi North 11.5 mph - N/A   Clear
10:53 AM 64.0 °F 48.0 °F 56% 29.96 in 10.0 mi North 11.5 mph 20.7 mph N/A   Clear
11:53 AM 70.0 °F 48.9 °F 47% 29.96 in 10.0 mi North 8.1 mph - N/A   Clear
12:53 PM 73.9 °F 52.0 °F 46% 29.94 in 10.0 mi North 5.8 mph 16.1 mph N/A   Clear
2:53 PM 81.0 °F 50.0 °F 34% 29.88 in 10.0 mi NNE 5.8 mph - N/A   Clear
3:53 PM 81.0 °F 50.0 °F 34% 29.86 in 10.0 mi NE 5.8 mph - N/A   Clear
4:53 PM 82.9 °F 48.0 °F 29% 29.85 in 10.0 mi NE 5.8 mph - N/A   Clear
5:53 PM 82.9 °F 48.9 °F 31% 29.85 in 10.0 mi ENE 6.9 mph - N/A   Clear
6:53 PM 80.1 °F 48.9 °F 34% 29.86 in 10.0 mi East 6.9 mph - N/A   Clear
7:53 PM 73.9 °F 48.0 °F 40% 29.89 in 10.0 mi ENE 4.6 mph - N/A   Clear
8:53 PM 70.0 °F 50.0 °F 49% 29.91 in 10.0 mi ENE 6.9 mph - N/A   Clear
9:53 PM 69.1 °F 52.0 °F 54% 29.92 in 10.0 mi East 10.4 mph - N/A   Clear
10:53 PM 66.9 °F 54.0 °F 63% 29.94 in 10.0 mi East 6.9 mph - N/A   Clear
11:53 PM 66.0 °F 55.9 °F 70% 29.93 in 10.0 mi East 8.1 mph - N/A   Clear